DW0051 Weather Reports


time (UTC)temp
C
wind
direction
speed
KPH
gust
KPH
rain 1hr
cm
rain 24hr
cm
rain mn
cm
humidity
%
barometer
mb
20260507185016 16 205 1.6 6.4 0.00 0.00 0.00 65 1014.9
20260507184015 16 244 1.6 16.1 0.00 0.00 0.00 64 1014.7
20260507183035 16 213 8.0 12.9 0.00 0.00 0.00 64 1014.5
20260507182015 16 204 4.8 12.9 0.00 0.00 0.00 64 1014.4
20260507181016 16 165 0.0 9.7 0.00 0.00 0.00 64 1014.3
20260507180015 16 182 1.6 12.9 0.00 0.00 0.00 63 1014.3
20260507175018 16 229 4.8 11.3 0.00 0.00 0.00 62 1014.1
20260507174018 16 146 4.8 14.5 0.00 0.00 0.00 62 1014.1
20260507173038 16 248 0.0 6.4 0.00 0.00 0.00 61 1014.0
20260507172038 16 215 3.2 8.0 0.00 0.00 0.00 61 1013.9
20260507171018 17 198 1.6 8.0 0.00 0.00 0.00 60 1013.7
20260507170038 17 0.0 0.0 0.00 0.00 0.00 59 1013.5
20260507165018 17 195 1.6 11.3 0.00 0.00 0.00 57 1013.5
20260507164019 17 204 6.4 11.3 0.00 0.00 0.00 56 1013.5
20260507163018 17 198 6.4 11.3 0.00 0.00 0.00 54 1013.4
20260507162018 17 205 3.2 9.7 0.00 0.00 0.00 57 1013.4
20260507161018 18 206 1.6 6.4 0.00 0.00 0.00 58 1013.3
20260507160018 18 196 6.4 9.7 0.00 0.00 0.00 57 1013.3
20260507155018 18 190 1.6 9.7 0.00 0.00 0.00 55 1013.1
20260507154018 18 217 3.2 8.0 0.00 0.00 0.00 53 1013.2
20260507153018 19 222 4.8 9.7 0.00 0.00 0.00 52 1013.1
20260507152039 19 196 1.6 8.0 0.00 0.00 0.00 51 1012.9
20260507151018 19 215 1.6 12.9 0.00 0.00 0.00 51 1012.8
20260507150038 19 227 3.2 8.0 0.00 0.00 0.00 52 1012.9
20260507145018 20 0.0 6.4 0.00 0.00 0.00 51 1012.8
20260507144018 20 195 1.6 9.7 0.00 0.00 0.00 50 1012.9
20260507143038 20 219 3.2 8.0 0.00 0.00 0.00 48 1012.9
20260507142019 21 192 4.8 9.7 0.00 0.00 0.00 47 1012.8
20260507141018 21 216 0.0 1.6 0.00 0.00 0.00 48 1012.8
20260507140018 21 232 0.0 4.8 0.00 0.00 0.00 45 1012.7
20260507135018 21 191 1.6 4.8 0.00 0.00 0.00 45 1012.7
20260507134018 21 0.0 4.8 0.00 0.00 0.00 45 1012.8
20260507133018 22 201 1.6 6.4 0.00 0.00 0.00 45 1012.7
20260507132038 21 196 3.2 8.0 0.00 0.00 0.00 46 1012.8
20260507131039 21 158 1.6 4.8 0.00 0.00 0.00 45 1012.9
20260507130018 21 0.0 0.0 0.00 0.00 0.00 44 1013.0
20260507125018 22 0.0 0.0 0.00 0.00 0.00 43 1012.9
20260507124018 22 0.0 6.4 0.00 0.00 0.00 42 1013.0
20260507123058 22 168 3.2 11.3 0.00 0.00 0.00 43 1013.1
20260507122018 22 195 0.0 8.0 0.00 0.00 0.00 43 1013.2
20260507121018 22 161 3.2 11.3 0.00 0.00 0.00 43 1013.2
20260507120019 22 211 0.0 12.9 0.00 0.00 0.00 43 1013.4
20260507115018 22 173 1.6 3.2 0.00 0.00 0.00 44 1013.3
20260507112516 20 180 4.8 11.3 0.00 0.00 0.00 48 1013.6
20260507111515 20 223 4.8 16.1 0.00 0.00 0.00 50 1013.6
20260507110515 20 255 3.2 14.5 0.00 0.00 0.00 49 1013.7
20260507105515 20 0.0 9.7 0.00 0.00 0.00 51 1013.7
20260507104515 20 0.0 9.7 0.00 0.00 0.00 50 1013.8
20260507103537 19 254 0.0 8.0 0.00 0.00 0.00 52 1013.9
20260507102515 18 197 1.6 9.7 0.00 0.00 0.00 53 1014.0
20260507101516 18 276 1.6 14.5 0.00 0.00 0.00 53 1014.1
20260507100515 18 183 6.4 16.1 0.00 0.00 0.00 54 1014.1
20260507095515 17 196 1.6 9.7 0.00 0.00 0.00 55 1014.1
20260507094515 18 196 4.8 11.3 0.00 0.00 0.00 55 1014.1
20260507093515 18 226 3.2 11.3 0.00 0.00 0.00 56 1014.0
20260507092556 17 225 4.8 14.5 0.00 0.00 0.00 55 1014.0
20260507091535 18 218 1.6 12.9 0.00 0.00 0.00 55 1014.0
20260507090515 17 191 1.6 11.3 0.00 0.00 0.00 56 1013.9
20260507085515 17 215 4.8 12.9 0.00 0.00 0.00 57 1013.8
20260507084515 18 209 8.0 25.7 0.00 0.00 0.00 55 1013.9
20260507083515 18 194 9.7 24.1 0.00 0.00 0.00 56 1013.7
20260507082517 17 240 8.0 17.7 0.00 0.00 0.00 57 1013.6
20260507081538 17 240 1.6 17.7 0.00 0.00 0.00 57 1013.6
20260507080518 16 211 3.2 11.3 0.00 0.00 0.00 61 1013.5
20260507075517 16 120 1.6 17.7 0.00 0.00 0.00 60 1013.5
20260507074517 16 311 6.4 25.7 0.00 0.00 0.00 62 1013.5
20260507073517 16 221 6.4 14.5 0.00 0.00 0.00 62 1013.4
20260507072517 16 274 3.2 8.0 0.00 0.00 0.00 63 1013.3
20260507071517 16 207 8.0 12.9 0.00 0.00 0.00 63 1013.2
20260507070537 16 178 3.2 14.5 0.00 0.00 0.00 64 1013.0
20260507065537 15 182 3.2 17.7 0.00 0.00 0.00 65 1013.1
20260507064538 15 197 3.2 17.7 0.00 0.00 0.00 67 1013.1
20260507063517 14 212 1.6 12.9 0.00 0.00 0.00 68 1013.1
20260507062537 14 183 3.2 11.3 0.00 0.00 0.00 69 1013.1
20260507061517 13 0.0 17.7 0.00 0.00 0.00 69 1012.9
20260507060517 13 262 3.2 11.3 0.00 0.00 0.00 69 1012.9
20260507055517 13 0.0 0.0 0.00 0.00 0.00 69 1012.9
20260507054518 13 247 0.0 8.0 0.00 0.00 0.00 69 1012.7
20260507053517 13 0.0 9.7 0.00 0.00 0.00 69 1012.5
20260507052517 13 0.0 4.8 0.00 0.00 0.00 70 1012.5
20260507051517 13 0.0 0.0 0.00 0.00 0.00 71 1012.4
20260507050517 13 178 0.0 11.3 0.00 0.00 0.00 70 1012.2
20260507045517 13 164 3.2 11.3 0.00 0.00 0.00 71 1012.1
20260507044518 13 228 3.2 11.3 0.00 0.00 0.00 71 1011.9
20260507043517 13 0.0 8.0 0.00 0.00 0.00 71 1011.9
20260507042517 13 204 4.8 8.0 0.00 0.00 0.00 71 1011.9
20260507041517 13 0.0 11.3 0.00 0.00 0.00 71 1011.7
20260507040517 13 0.0 8.0 0.00 0.00 0.00 71 1011.6
20260507035516 13 210 8.0 14.5 0.00 0.00 0.00 71 1011.5
20260507034516 13 231 3.2 12.9 0.00 0.00 0.00 71 1011.5
20260507033537 13 222 1.6 14.5 0.00 0.00 0.00 71 1011.5
20260507032517 13 0.0 6.4 0.00 0.00 0.00 71 1011.4
20260507031517 13 185 3.2 8.0 0.00 0.00 0.00 70 1011.5
20260507030516 13 216 0.0 11.3 0.00 0.00 0.00 69 1011.5
20260507025517 13 220 3.2 6.4 0.00 0.00 0.00 69 1011.3
20260507024517 13 205 0.0 3.2 0.00 0.00 0.00 69 1011.3
20260507023517 13 177 0.0 6.4 0.00 0.00 0.00 69 1011.2
20260507022517 13 0.0 8.0 0.00 0.00 0.00 70 1011.1
20260507021517 13 240 0.0 4.8 0.00 0.00 0.00 70 1011.2
20260507020516 14 0.0 6.4 0.00 0.00 0.00 70 1011.1
20260507015516 14 0.0 0.0 0.00 0.00 0.00 71 1010.9
20260507014517 14 256 0.0 1.6 0.00 0.00 0.00 71 1010.8
20260507013516 14 253 0.0 9.7 0.00 0.00 0.00 71 1010.8
20260507012516 14 0.0 11.3 0.00 0.00 0.00 72 1010.6
20260507011516 14 216 1.6 9.7 0.00 0.00 0.00 72 1010.7
20260507010517 14 0.0 17.7 0.00 0.00 0.00 73 1010.3
20260507005516 14 0.0 8.0 0.00 0.00 0.00 73 1010.2
20260507004516 14 188 3.2 14.5 0.00 0.00 0.00 73 1010.2
20260507003537 15 0.0 6.4 0.00 0.00 0.00 73 1010.2
20260507002517 15 196 1.6 14.5 0.00 0.00 0.00 72 1010.2
20260507001517 15 219 3.2 16.1 0.00 0.00 0.00 72 1010.2
20260507000537 15 0.0 14.5 0.00 0.00 0.00 71 1010.2
20260506235518 15 227 1.6 11.3 0.00 0.00 0.00 71 1010.1
20260506234516 15 168 4.8 14.5 0.00 0.00 0.00 72 1009.9
20260506233517 15 218 1.6 25.7 0.00 0.00 0.00 72 1009.7
20260506232537 15 230 8.0 20.9 0.00 0.00 0.00 72 1009.7
20260506231516 15 209 4.8 14.5 0.00 0.00 0.00 72 1009.6
20260506230517 16 195 4.8 14.5 0.00 0.00 0.00 73 1009.3
20260506225516 16 201 11.3 24.1 0.00 0.00 0.00 75 1009.1
20260506224517 16 234 6.4 14.5 0.00 0.00 0.00 75 1009.0
20260506223516 16 187 3.2 9.7 0.00 0.00 0.00 75 1008.9
20260506222516 16 188 4.8 14.5 0.00 0.00 0.00 73 1008.8
20260506221516 16 226 4.8 19.3 0.00 0.00 0.00 71 1008.6
20260506220516 16 203 9.7 19.3 0.00 0.00 0.00 69 1008.3
20260506215536 17 233 6.4 17.7 0.00 0.00 0.00 68 1007.9
20260506214516 17 219 3.2 16.1 0.00 0.00 0.00 67 1007.5
20260506213517 17 210 9.7 17.7 0.00 0.00 0.00 67 1007.4
20260506212537 17 221 6.4 11.3 0.00 0.00 0.00 68 1007.1
20260506211517 15 233 4.8 14.5 0.00 0.00 0.00 70 1007.0
20260506210516 15 273 0.0 6.4 0.00 0.00 0.00 73 1006.5
20260506205536 15 0.0 0.0 0.00 0.00 0.00 72 1006.2
20260506204516 16 0.0 0.0 0.00 0.00 0.00 71 1006.1
20260506203517 16 0.0 0.0 0.00 0.00 0.00 70 1005.8
20260506202517 16 0.0 0.0 0.00 0.00 0.00 69 1005.7
20260506201516 16 0.0 0.0 0.00 0.00 0.00 69 1005.6
20260506200516 16 0.0 0.0 0.00 0.00 0.00 68 1005.6
20260506195516 17 0.0 0.0 0.00 0.00 0.00 67 1005.4
20260506194516 17 0.0 0.0 0.00 0.00 0.00 66 1005.2
20260506193516 17 0.0 0.0 0.00 0.00 0.00 64 1005.0
20260506192536 18 0.0 4.8 0.00 0.00 0.00 63 1005.0
20260506191557 18 0.0 0.0 0.00 0.00 0.00 62 1004.8
20260506190516 18 0.0 0.0 0.00 0.00 0.00 60 1004.7